Weather History for Kankakee, IL

Change the Weather History Date:

Wednesday, October 1, 2014

  Actual Average Record
Temperature  
Mean Temperature 58 °F -  
Max Temperature 72 °F 73 °F 86 °F (1981)
Min Temperature 44 °F 45 °F 31 °F (1984)
Degree Days  
Heating Degree Days 7    
Growing Degree Days 8 (Base 50)    
Moisture  
Dew Point 50 °F    
Average Humidity 78    
Maximum Humidity 100    
Minimum Humidity 56    
Precipitation  
Precipitation 0.00 in - - ()
Sea Level Pressure  
Sea Level Pressure 29.99 in    
Wind  
Wind Speed 7 mph (ENE)    
Max Wind Speed 13 mph    
Max Gust Speed 17 mph    
Visibility 10 miles    
Events      
Averages and records for this station are not official NWS values.
T = Trace of Precipitation, MM = Missing Value Source: NWS Daily Summary

Daily Weather History Graph

Daily Weather History Graph

Search for Another Location

Airport:

Trip Planner

Search our weather history database for the weather conditions in past years. The results will help you decide how hot, cold, wet, or windy it might be!

Date:

Astronomy

Oct. 01, 2014 Rise Set
Actual Time 6:48 AM CDT 6:33 PM CDT
Civil Twilight 6:20 AM CDT 7:00 PM CDT
Nautical Twilight 5:48 AM CDT 7:32 PM CDT
Astronomical Twilight 5:16 AM CDT 8:04 PM CDT
Moon 1:50 PM CDT (10/1) No Moon Set
Length of Visible Light 12h 40m
Length of Day
11h 45m
Waxing Crescent, 49% of the Moon is Illuminated
Oct 1
Waxing Crescent
Oct 1
First Quarter
Oct 8
Full
Oct 15
Last Quarter
Oct 23
New

Hourly Weather History & Observations

Time (CDT) Temp. Windchill Dew Point Humidity Pressure Visibility Wind Dir Wind Speed Gust Speed Precip Events Conditions
12:15 AM 58.3 °F - 54.9 °F 88% 29.99 in 10.0 mi NNE 9.2 mph 16.1 mph N/A   Overcast
12:35 AM 58.1 °F - 54.7 °F 88% 29.99 in 10.0 mi NNE 6.9 mph - N/A   Overcast
12:55 AM 46.4 °F 42.9 °F 44.6 °F 93% 30.01 in 10.0 mi ENE 6.9 mph - N/A   Clear
1:15 AM 46.6 °F - 45.0 °F 94% 30.02 in 10.0 mi ENE 4.6 mph - N/A   Clear
1:55 AM 57.4 °F - 53.6 °F 87% 30.01 in 10.0 mi NNE 8.1 mph - N/A   Overcast
2:35 AM 45.3 °F 42.3 °F 44.1 °F 95% 30.01 in 10.0 mi NE 5.8 mph - N/A   Clear
2:55 AM 56.3 °F - 52.7 °F 88% 30.01 in 10.0 mi NNE 6.9 mph - N/A   Overcast
3:15 AM 45.0 °F 43.5 °F 43.9 °F 96% 30.01 in 10.0 mi ENE 3.5 mph - N/A   Clear
3:35 AM 45.3 °F 44.0 °F 44.1 °F 95% 30.01 in 10.0 mi ENE 3.5 mph - N/A   Clear
3:55 AM 44.6 °F 43.1 °F 44.6 °F 100% 30.01 in 10.0 mi East 3.5 mph - N/A   Clear
4:15 AM 45.0 °F - 44.1 °F 97% 30.01 in 10.0 mi Calm Calm - N/A   Clear
4:35 AM 44.6 °F 42.2 °F 43.3 °F 95% 30.01 in 10.0 mi East 4.6 mph - N/A   Clear
4:55 AM 44.2 °F 41.0 °F 43.2 °F 96% 30.01 in 10.0 mi East 5.8 mph - N/A   Clear
5:15 AM 44.6 °F 41.4 °F 43.5 °F 96% 30.00 in 10.0 mi East 5.8 mph - N/A   Clear
5:35 AM 44.6 °F 43.1 °F 43.7 °F 97% 30.01 in 10.0 mi ENE 3.5 mph - N/A   Clear
5:55 AM 44.6 °F 41.4 °F 43.7 °F 97% 30.01 in 10.0 mi ENE 5.8 mph - N/A   Clear
6:15 AM 44.6 °F 42.2 °F 43.7 °F 97% 30.01 in 10.0 mi East 4.6 mph - N/A   Clear
6:35 AM 44.6 °F 42.2 °F 43.5 °F 96% 30.01 in 10.0 mi East 4.6 mph - N/A   Clear
6:55 AM 44.1 °F 41.5 °F 43.2 °F 97% 30.01 in 7.0 mi East 4.6 mph - N/A   Clear
7:35 AM 53.6 °F - 48.2 °F 82% 30.04 in 10.0 mi NNE 6.9 mph - N/A   Overcast
7:55 AM 48.6 °F - 46.9 °F 94% 30.02 in 10.0 mi East 5.8 mph - N/A   Clear
8:35 AM 54.9 °F - 48.4 °F 79% 30.04 in 10.0 mi NNE 9.2 mph - N/A   Overcast
8:55 AM 53.4 °F - 49.1 °F 85% 30.03 in 10.0 mi ESE 5.8 mph - N/A   Clear
9:15 AM 55.6 °F - 48.6 °F 77% 30.04 in 10.0 mi NNE 10.4 mph - N/A   Overcast
9:35 AM 55.8 °F - 48.7 °F 77% 30.04 in 10.0 mi NNE 10.4 mph - N/A   Overcast
9:55 AM 55.9 °F - 49.1 °F 78% 30.04 in 10.0 mi NNE 5.8 mph - N/A   Overcast
10:15 AM 59.9 °F - 50.5 °F 71% 30.02 in 10.0 mi ESE 9.2 mph - N/A   Clear
10:35 AM 61.3 °F - 51.1 °F 69% 30.02 in 10.0 mi ESE 9.2 mph - N/A   Clear
10:55 AM 62.8 °F - 52.3 °F 69% 30.02 in 10.0 mi ESE 9.2 mph - N/A   Clear
11:15 AM 64.6 °F - 52.9 °F 66% 30.01 in 10.0 mi SE 9.2 mph - N/A   Clear
11:35 AM 65.8 °F - 53.2 °F 64% 30.00 in 10.0 mi ESE 10.4 mph - N/A   Clear
11:55 AM 67.3 °F - 53.2 °F 61% 30.00 in 10.0 mi ESE 8.1 mph - N/A   Clear
12:15 PM 68.4 °F - 54.0 °F 60% 29.99 in 10.0 mi ESE 9.2 mph - N/A   Clear
12:35 PM 69.3 °F - 54.3 °F 59% 29.99 in 10.0 mi SE 9.2 mph - N/A   Clear
12:55 PM 62.1 °F - 50.4 °F 65% 30.02 in 10.0 mi NNE 10.4 mph 17.3 mph N/A   Scattered Clouds
1:15 PM 61.9 °F - 48.9 °F 62% 30.02 in 10.0 mi North 6.9 mph 16.1 mph N/A   Scattered Clouds
1:35 PM 72.5 °F - 55.9 °F 56% 29.96 in 10.0 mi ESE 8.1 mph - N/A   Clear
2:55 PM 62.8 °F - 49.1 °F 61% 29.99 in 10.0 mi NNE 10.4 mph - N/A   Clear
3:15 PM 61.9 °F - 48.6 °F 62% 29.99 in 10.0 mi NNE 9.2 mph - N/A   Clear
3:35 PM 62.4 °F - 48.9 °F 61% 29.99 in 10.0 mi NNE 8.1 mph - N/A   Clear
3:55 PM 62.1 °F - 48.7 °F 62% 29.99 in 10.0 mi NNE 11.5 mph 16.1 mph N/A   Clear
4:15 PM 61.0 °F - 49.3 °F 65% 29.99 in 10.0 mi NE 12.7 mph - N/A   Clear
4:35 PM 59.4 °F - 48.4 °F 67% 30.00 in 10.0 mi NE 9.2 mph - N/A   Clear
5:55 PM 56.3 °F - 48.2 °F 74% 30.01 in 10.0 mi NNE 6.9 mph - N/A   Mostly Cloudy
6:15 PM 56.3 °F - 48.6 °F 75% 30.02 in 10.0 mi NNE 5.8 mph - N/A   Light Drizzle
6:35 PM 56.1 °F - 48.4 °F 75% 30.01 in 10.0 mi NNE 6.9 mph - N/A   Overcast
6:55 PM 55.2 °F - 47.3 °F 75% 30.01 in 10.0 mi NE 8.1 mph - N/A   Overcast
8:15 PM 66.9 °F - 55.4 °F 66% 29.91 in 10.0 mi ESE 8.1 mph - N/A   Unknown
8:35 PM 66.6 °F - 54.9 °F 66% 29.90 in 10.0 mi ESE 10.4 mph - N/A   Clear
8:55 PM 66.2 °F - 55.0 °F 67% 29.91 in 10.0 mi ESE 10.4 mph - N/A   Clear
9:15 PM 65.7 °F - 55.4 °F 69% 29.92 in 10.0 mi ESE 8.1 mph - N/A   Clear
9:35 PM 65.8 °F - 55.6 °F 69% 29.92 in 10.0 mi ESE 10.4 mph - N/A   Scattered Clouds
9:55 PM 65.7 °F - 55.8 °F 70% 29.92 in 10.0 mi ESE 9.2 mph - N/A   Scattered Clouds
10:15 PM 65.7 °F - 56.3 °F 72% 29.91 in 10.0 mi ESE 10.4 mph - N/A   Clear
10:35 PM 52.2 °F - 47.1 °F 83% 30.03 in 10.0 mi ENE 5.8 mph - N/A   Mostly Cloudy
10:55 PM 66.2 °F - 57.2 °F 73% 29.90 in 10.0 mi ESE 9.2 mph - N/A   Clear
11:15 PM 65.5 °F - 57.0 °F 74% 29.90 in 10.0 mi ESE 8.1 mph - N/A   Clear
11:35 PM 65.3 °F - 57.2 °F 75% 29.89 in 10.0 mi SE 9.2 mph - N/A   Clear
11:55 PM 64.8 °F - 57.9 °F 78% 29.90 in 10.0 mi ESE 9.2 mph - N/A   Drizzle